Location: Jarosław
(50.0191°N, 22.6835°E)
Time: 16:26:37
(UTC+02:00)

ISS - Pass Details

Date: 21 March 2019
Orbit: 408 x 410 km, 51.6° (Epoch: 25 April)

Event Time Altitude Azimuth Distance (km) Brightness Sun altitude
Rises 18:47:44 0° 193° (SSW) 2,323 0.0 -11.1°
Reaches altitude 10° 18:50:48 10° 161° (SSE) 1,467 -1.3 -11.6°
Enters shadow 18:51:34 12° 148° (SSE) 1,371 -1.6 -11.7°
